Tracking 25620 objects as of 18-May-2022
HD Live streaming from Space Station
objects crossing your sky now

STARLINK-61

Track STARLINK-61 now!
10-day predictions
STARLINK-61 is classified as:


NORAD ID: 44249
Int'l Code: 2019-029Q
Perigee: 420.6 km
Apogee: 441.9 km
Inclination: 53.0 °
Period: 93.1 minutes
Semi major axis: 6802 km
RCS: Unknown
Launch date: May 24, 2019
Source: United States (US)
Launch site: AIR FORCE EASTERN TEST RANGE (AFETR)
aabbcc
Your satellite tracking list
Your tracking list is empty




NASA's NSSDC Master Catalog

Two Line Element Set (TLE):
1 44249U 19029Q   22138.50013967  .00216861  00000-0  40358-2 0  9997
2 44249  52.9707 207.0215 0015662   6.7167 353.4046 15.47464508165987
Source of the keplerian elements: AFSPC